EW2664 Weather Reports


Display with metric or nautical units.
time (UTC)temp
F
wind
direction
speed
MPH
gust
MPH
rain 1hr
in
rain 24hr
in
rain mn
in
humidity
%
barometer
mb
20210624152544 75 67 0.0 0.0 0.07 0.49 0.49 98 1020.8
20210624152048 75 67 0.0 0.0 0.06 0.48 0.48 98 1020.8
20210624151552 75 67 0.0 0.0 0.07 0.48 0.48 98 1021.0
20210624151057 75 67 0.0 0.0 0.06 0.47 0.47 99 1021.0
20210624150600 75 67 0.0 0.0 0.05 0.46 0.46 99 1021.0
20210624150114 75 67 0.0 0.0 0.04 0.45 0.45 99 1021.0
20210624145540 75 67 0.0 0.0 0.05 0.45 0.45 98 1021.0
20210624145044 75 67 0.0 0.0 0.05 0.45 0.45 98 1020.9
20210624144548 75 67 0.0 0.0 0.04 0.44 0.44 99 1020.9
20210624144052 74 67 0.0 0.0 0.03 0.43 0.43 98 1020.8
20210624143556 74 67 0.0 0.0 0.04 0.43 0.43 98 1020.8
20210624143041 74 67 0.0 0.0 0.04 0.43 0.43 98 1020.7
20210624142545 74 67 0.0 0.0 0.03 0.42 0.42 98 1020.8
20210624142049 74 67 0.0 0.0 0.03 0.42 0.42 98 1020.8
20210624141554 74 67 0.0 0.0 0.03 0.41 0.41 98 1020.5
20210624141059 74 67 0.0 1.0 0.04 0.41 0.41 98 1020.6
20210624140542 74 67 0.0 3.0 0.13 0.41 0.41 98 1020.6
20210624140059 74 67 1.0 3.0 0.24 0.41 0.41 98 1020.7
20210624135547 74 35 0.0 2.0 0.27 0.40 0.40 98 1020.7
20210624135052 74 28 0.0 1.0 0.29 0.40 0.40 97 1020.8
20210624134557 74 28 0.0 0.0 0.33 0.40 0.40 97 1020.7
20210624134041 74 28 0.0 0.0 0.40 0.40 0.40 97 1020.7
20210624133545 74 28 0.0 1.0 0.39 0.39 0.39 97 1020.6
20210624133049 74 28 0.0 3.0 0.39 0.39 0.39 97 1020.6
20210624132553 74 27 0.0 3.0 0.39 0.39 0.39 96 1020.5
20210624132057 74 28 0.0 2.0 0.39 0.39 0.39 96 1020.5
20210624131540 75 73 0.0 1.0 0.38 0.38 0.38 96 1020.7
20210624131044 75 73 0.0 2.0 0.36 0.36 0.36 96 1020.6
20210624130549 75 73 0.0 4.0 0.28 0.28 0.28 95 1020.9
20210624130105 76 71 2.0 5.0 0.16 0.16 0.16 94 1020.9
20210624125552 77 82 1.0 5.0 0.13 0.13 0.13 94 1020.7
20210624125040 78 304 1.0 5.0 0.11 0.11 0.11 94 1020.6
20210624124545 78 69 2.0 4.0 0.05 0.05 0.05 94 1020.3
20210624124049 78 50 0.0 3.0 0.00 0.00 0.00 93 1020.0
20210624123553 78 335 0.0 3.0 0.00 0.00 0.00 94 1019.9
20210624123056 78 16 1.0 3.0 0.00 0.00 0.00 94 1019.9
20210624122541 78 98 0.0 1.0 0.00 0.00 0.00 95 1019.7
20210624122045 78 171 0.0 1.0 0.00 0.00 0.00 95 1019.5
20210624121550 77 265 0.0 1.0 0.00 0.00 0.00 95 1019.4
20210624121055 77 264 0.0 1.0 0.00 0.00 0.00 95 1019.4
20210624120541 77 265 0.0 1.0 0.00 0.00 0.00 96 1019.3
20210624120056 77 265 0.0 0.0 0.00 0.00 0.00 96 1019.2
20210624115545 77 264 0.0 0.0 0.00 0.00 0.00 96 1019.3
20210624115049 77 314 0.0 0.0 0.00 0.00 0.00 96 1019.3
20210624114554 77 314 0.0 1.0 0.00 0.00 0.00 96 1019.1
20210624114056 77 314 0.0 1.0 0.00 0.00 0.00 96 1019.1
20210624113558 77 314 0.0 1.0 0.00 0.00 0.00 96 1019.1
20210624113042 77 314 0.0 1.0 0.00 0.00 0.00 96 1019.1
20210624112546 76 314 0.0 1.0 0.00 0.00 0.00 96 1019.0
20210624112051 76 314 0.0 0.0 0.00 0.00 0.00 96 1018.9
20210624111555 76 314 0.0 0.0 0.00 0.00 0.00 96 1018.7
20210624111059 76 314 0.0 0.0 0.00 0.00 0.00 96 1018.8
20210624110543 76 314 0.0 0.0 0.00 0.00 0.00 96 1018.9
20210624110059 76 314 0.0 0.0 0.00 0.00 0.00 96 1018.9
20210624105547 76 296 0.0 0.0 0.00 0.00 0.00 96 1018.8
20210624105051 76 296 0.0 0.0 0.00 0.00 0.00 96 1018.7
20210624104556 76 291 0.0 0.0 0.00 0.00 0.00 96 1018.8
20210624104041 76 70 0.0 0.0 0.00 0.00 0.00 96 1018.8
20210624103545 76 70 0.0 0.0 0.00 0.00 0.00 96 1018.8
20210624103049 76 70 0.0 0.0 0.00 0.00 0.00 96 1018.8
20210624102554 76 70 0.0 0.0 0.00 0.00 0.00 96 1018.8
20210624102057 76 70 0.0 0.0 0.00 0.00 0.00 96 1018.9
20210624101541 76 70 0.0 0.0 0.00 0.00 0.00 96 1018.8
20210624101046 76 70 0.0 0.0 0.00 0.00 0.00 95 1018.8
20210624100548 76 70 0.0 0.0 0.00 0.00 0.00 95 1018.9
20210624100106 76 70 0.0 0.0 0.00 0.00 0.00 95 1018.9
20210624095553 76 70 0.0 0.0 0.00 0.00 0.00 95 1018.9
20210624095058 76 70 0.0 0.0 0.00 0.00 0.00 95 1018.9
20210624094542 76 70 0.0 0.0 0.00 0.00 0.00 95 1018.8
20210624094046 76 70 0.0 0.0 0.00 0.00 0.00 95 1018.8
20210624093551 76 70 0.0 0.0 0.00 0.00 0.00 95 1018.7
20210624093055 77 70 0.0 0.0 0.00 0.00 0.00 95 1018.7
20210624092540 77 70 0.0 0.0 0.00 0.00 0.00 95 1018.6
20210624092045 77 70 0.0 0.0 0.00 0.00 0.00 95 1018.6
20210624091549 77 70 0.0 0.0 0.00 0.00 0.00 95 1018.6
20210624091052 77 70 0.0 0.0 0.00 0.00 0.00 95 1018.5
20210624090556 77 70 0.0 0.0 0.00 0.00 0.00 94 1018.5
20210624090113 77 70 0.0 0.0 0.00 0.00 0.00 94 1018.4
20210624085542 77 70 0.0 0.0 0.00 0.00 0.00 94 1018.3
20210624085048 77 70 0.0 0.0 0.00 0.00 0.00 94 1018.3
20210624084552 77 70 0.0 0.0 0.00 0.00 0.00 94 1018.3
20210624084055 77 70 0.0 0.0 0.00 0.00 0.00 94 1018.2
20210624083558 77 70 0.0 0.0 0.00 0.00 0.00 93 1018.2
20210624083041 77 70 0.0 0.0 0.00 0.00 0.00 93 1018.4
20210624082546 77 70 0.0 0.0 0.00 0.00 0.00 93 1018.4
20210624082050 77 70 0.0 0.0 0.00 0.00 0.00 93 1018.3
20210624081552 77 70 0.0 0.0 0.00 0.00 0.00 92 1018.3
20210624081056 77 70 0.0 0.0 0.00 0.00 0.00 92 1018.2
20210624080559 77 70 0.0 0.0 0.00 0.00 0.00 92 1018.2
20210624080115 77 70 0.0 0.0 0.00 0.00 0.00 92 1018.2
20210624075542 78 70 0.0 0.0 0.00 0.00 0.00 92 1018.3
20210624075046 78 70 0.0 0.0 0.00 0.00 0.00 91 1018.3
20210624074550 78 70 0.0 0.0 0.00 0.00 0.00 91 1018.2
20210624074053 78 70 0.0 0.0 0.00 0.00 0.00 91 1018.3
20210624073557 78 70 0.0 0.0 0.00 0.00 0.00 91 1018.3
20210624073040 78 70 0.0 0.0 0.00 0.00 0.00 91 1018.3
20210624072542 78 70 0.0 0.0 0.00 0.00 0.00 90 1018.3
20210624072045 78 70 0.0 0.0 0.00 0.00 0.00 90 1018.3
20210624071549 78 70 0.0 0.0 0.00 0.00 0.00 90 1018.3
20210624071053 78 70 0.0 0.0 0.00 0.00 0.00 90 1018.4
20210624070541 79 70 0.0 0.0 0.00 0.00 0.00 89 1018.4
20210624070058 79 70 0.0 0.0 0.00 0.01 0.00 89 1018.5
20210624065546 79 70 0.0 0.0 0.00 0.01 0.00 89 1018.5
20210624065051 79 70 0.0 0.0 0.00 0.01 0.00 89 1018.5
20210624064556 79 70 0.0 0.0 0.00 0.01 0.00 88 1018.6
20210624064041 79 70 0.0 0.0 0.00 0.01 0.00 88 1018.6
20210624063545 79 70 0.0 0.0 0.00 0.01 0.00 88 1018.6
20210624063048 79 70 0.0 0.0 0.00 0.01 0.00 88 1018.7
20210624062553 79 70 0.0 0.0 0.00 0.01 0.00 88 1018.7
20210624062058 79 70 0.0 0.0 0.00 0.01 0.00 88 1018.7
20210624061542 79 70 0.0 0.0 0.00 0.01 0.00 88 1018.8
20210624061047 79 70 0.0 0.0 0.00 0.01 0.00 88 1018.8
20210624060552 79 70 0.0 0.0 0.00 0.01 0.00 88 1019.0
20210624060107 79 70 0.0 0.0 0.00 0.03 0.00 87 1019.1
20210624055555 79 70 0.0 0.0 0.00 0.03 0.00 87 1019.4
20210624055059 80 70 0.0 0.0 0.00 0.03 0.00 87 1019.4
20210624054544 80 70 0.0 0.0 0.00 0.03 0.00 87 1019.4
20210624054048 80 70 0.0 0.0 0.00 0.03 0.00 87 1019.4
20210624053553 80 70 0.0 0.0 0.00 0.03 0.00 87 1019.4
20210624053057 80 70 0.0 0.0 0.00 0.03 0.00 87 1019.4
20210624052541 80 70 0.0 0.0 0.00 0.03 0.00 87 1019.5
20210624052044 80 70 0.0 1.0 0.00 0.03 0.00 87 1019.6
20210624051549 80 70 0.0 1.0 0.00 0.03 0.00 88 1019.6
20210624051053 80 70 0.0 1.0 0.00 0.03 0.00 88 1019.8
20210624050556 79 70 0.0 1.0 0.00 0.03 0.00 88 1019.8
20210624050114 79 70 0.0 1.0 0.00 0.04 0.00 89 1019.8
20210624045543 79 70 0.0 1.0 0.00 0.04 0.00 89 1019.9
20210624045047 79 70 0.0 0.0 0.00 0.04 0.00 90 1020.0
20210624044552 79 70 0.0 0.0 0.00 0.04 0.00 90 1020.2
20210624044055 79 70 0.0 1.0 0.00 0.04 0.00 90 1020.2
20210624043559 79 70 0.0 1.0 0.00 0.04 0.00 90 1020.2
20210624043044 79 70 0.0 2.0 0.00 0.04 0.00 90 1020.2
20210624042545 79 70 0.0 2.0 0.00 0.04 0.00 90 1020.3
20210624042048 79 70 0.0 1.0 0.00 0.04 0.00 90 1020.3
20210624041553 79 70 0.0 1.0 0.00 0.04 0.00 90 1020.3
20210624041056 79 70 0.0 2.0 0.00 0.04 0.00 90 1020.3
20210624040559 79 70 0.0 2.0 0.00 0.04 0.00 90 1020.3
20210624040056 79 69 0.0 3.0 0.00 1.88 0.04 90 1020.3
20210624035545 79 61 1.0 3.0 0.00 1.88 0.04 90 1020.2
20210624035050 79 75 0.0 2.0 0.00 1.88 0.04 90 1020.3
20210624034553 79 70 0.0 2.0 0.00 1.88 0.04 90 1020.3
20210624034058 79 157 0.0 3.0 0.00 1.88 0.04 90 1020.2
20210624033542 79 161 1.0 3.0 0.00 1.88 0.04 90 1020.1
20210624033045 79 46 0.0 3.0 0.00 1.88 0.04 90 1020.3
20210624032550 79 69 0.0 3.0 0.00 1.88 0.04 89 1020.4
20210624032053 78 57 1.0 3.0 0.00 1.88 0.04 89 1020.4
20210624031557 78 9 0.0 0.0 0.00 1.88 0.04 88 1020.4
20210624031041 78 9 0.0 0.0 0.00 1.88 0.04 88 1020.5
20210624030546 79 5 0.0 0.0 0.00 1.88 0.04 88 1020.5
20210624030100 78 28 0.0 0.0 0.00 1.88 0.04 87 1020.5
20210624025550 78 28 0.0 2.0 0.00 1.88 0.04 87 1020.5
20210624025053 78 41 0.0 2.0 0.00 1.88 0.04 87 1020.4
20210624024558 78 37 0.0 3.0 0.00 1.88 0.04 87 1020.4
20210624024059 78 27 0.0 3.0 0.00 1.88 0.04 87 1020.4
20210624023544 78 32 0.0 4.0 0.00 1.88 0.04 87 1020.5
20210624023048 78 49 1.0 4.0 0.00 1.88 0.04 88 1020.6
20210624022553 79 86 1.0 3.0 0.00 1.88 0.04 88 1020.5
20210624022058 79 15 0.0 3.0 0.00 1.88 0.04 88 1020.6
20210624021603 79 53 1.0 3.0 0.00 1.88 0.04 87 1020.6
20210624021059 79 343 1.0 3.0 0.00 1.88 0.04 87 1020.6
20210624020544 79 355 0.0 3.0 0.00 1.88 0.04 87 1020.6
20210624020101 79 74 1.0 4.0 0.00 1.88 0.04 87 1020.8
20210624015549 79 71 1.0 4.0 0.00 1.88 0.04 87 1020.7
20210624015054 79 38 0.0 2.0 0.00 1.88 0.04 86 1020.7
20210624014559 79 32 0.0 3.0 0.00 1.88 0.04 86 1020.7
20210624014044 79 34 0.0 3.0 0.00 1.88 0.04 86 1020.6
20210624013549 79 36 0.0 2.0 0.00 1.88 0.04 86 1020.5
20210624013054 79 34 0.0 3.0 0.00 1.88 0.04 86 1020.4
20210624012543 79 27 1.0 3.0 0.00 1.88 0.04 86 1020.3
20210624012048 79 31 1.0 2.0 0.00 1.88 0.04 86 1020.3
20210624011553 79 35 0.0 2.0 0.00 1.88 0.04 86 1020.4
20210624011058 79 35 0.0 2.0 0.00 1.88 0.04 85 1020.3
20210624010543 79 30 0.0 2.0 0.00 1.88 0.04 85 1020.2
20210624010059 79 33 0.0 2.0 0.00 1.88 0.04 85 1020.1
20210624005548 79 30 0.0 3.0 0.00 1.88 0.04 85 1020.2
20210624005053 80 58 1.0 3.0 0.00 1.88 0.04 85 1020.1
20210624004549 80 360 0.0 3.0 0.00 1.88 0.04 85 1020.1
20210624004051 80 351 0.0 3.0 0.00 1.88 0.04 84 1020.2
20210624003553 80 9 0.0 3.0 0.00 1.88 0.04 84 1020.2
20210624003058 80 360 0.0 2.0 0.00 1.88 0.04 84 1020.1
20210624002543 80 18 0.0 1.0 0.00 1.88 0.04 85 1020.1
20210624002047 80 355 0.0 1.0 0.00 1.88 0.04 84 1020.2
20210624001551 80 57 0.0 3.0 0.00 1.88 0.04 84 1020.1
20210624001056 80 360 0.0 3.0 0.00 1.88 0.04 84 1020.2
20210624000541 80 71 0.0 3.0 0.00 1.88 0.04 84 1020.2
20210624000057 80 65 0.0 3.0 0.00 1.88 0.04 85 1020.3
20210623235546 80 316 0.0 2.0 0.00 1.88 0.04 85 1020.3
20210623235050 80 315 1.0 3.0 0.00 1.88 0.04 85 1020.3
20210623234555 80 42 1.0 3.0 0.00 1.88 0.04 85 1020.3
20210623234040 80 90 0.0 3.0 0.00 1.88 0.04 85 1020.4
20210623233545 80 57 1.0 2.0 0.00 1.88 0.04 85 1020.5
20210623233050 80 69 1.0 5.0 0.00 1.88 0.04 84 1020.4
20210623232555 81 350 0.0 5.0 0.00 1.88 0.04 84 1020.4
20210623232040 81 36 2.0 5.0 0.00 1.88 0.04 84 1020.4
20210623231545 81 30 1.0 5.0 0.00 1.88 0.04 84 1020.3
20210623231051 81 43 2.0 3.0 0.00 1.88 0.04 84 1020.3
20210623230555 81 17 1.0 3.0 0.00 1.88 0.04 84 1020.3
20210623230113 81 49 0.0 4.0 0.00 1.88 0.04 84 1020.3
20210623225542 81 340 1.0 4.0 0.00 1.88 0.04 84 1020.1
20210623225047 81 340 1.0 3.0 0.00 1.88 0.04 83 1020.1
20210623224552 81 360 1.0 3.0 0.00 1.88 0.04 83 1020.1
20210623224057 81 346 1.0 4.0 0.00 1.88 0.04 83 1020.2
20210623223540 81 344 0.0 4.0 0.00 1.88 0.04 83 1020.3
20210623223043 81 61 0.0 3.0 0.00 1.88 0.04 83 1020.1
20210623222547 81 42 0.0 3.0 0.00 1.88 0.04 83 1020.1
20210623222052 81 17 0.0 2.0 0.00 1.88 0.04 83 1020.1
20210623221557 81 347 0.0 2.0 0.00 1.88 0.04 83 1020.2
20210623221042 81 307 1.0 4.0 0.00 1.88 0.04 83 1020.1
20210623220548 81 277 1.0 6.0 0.00 1.88 0.04 83 1020.0
20210623220104 81 336 0.0 4.0 0.00 1.88 0.04 83 1020.1
20210623215553 81 321 1.0 5.0 0.00 1.88 0.04 83 1020.2
20210623215058 81 316 0.0 5.0 0.00 1.88 0.04 84 1020.1
20210623214543 80 23 0.0 5.0 0.00 1.88 0.04 84 1020.1
20210623214047 80 36 2.0 5.0 0.00 1.88 0.04 83 1020.0
20210623213550 81 324 1.0 5.0 0.00 1.88 0.04 83 1020.1
20210623213055 81 325 2.0 7.0 0.00 1.88 0.04 82 1020.1
20210623212540 81 349 2.0 7.0 0.00 1.88 0.04 82 1020.1
20210623212045 81 215 2.0 8.0 0.00 1.88 0.04 80 1020.1
20210623211550 81 288 2.0 5.0 0.00 1.88 0.04 81 1020.1
20210623211054 81 325 2.0 8.0 0.00 1.88 0.04 81 1020.0
20210623210559 81 65 2.0 10.0 0.00 1.88 0.04 80 1020.0
20210623210056 82 360 2.0 9.0 0.00 1.88 0.04 81 1019.9
20210623205546 83 36 2.0 10.0 0.00 1.88 0.04 81 1019.7
20210623205052 83 344 3.0 10.0 0.00 1.88 0.04 80 1019.6
20210623204555 83 348 2.0 9.0 0.00 1.88 0.04 82 1019.6
20210623204040 84 327 1.0 8.0 0.00 1.88 0.04 81 1019.5
20210623203545 84 327 3.0 8.0 0.00 1.88 0.04 80 1019.5
20210623203049 85 335 2.0 8.0 0.00 1.88 0.04 79 1019.5
20210623202555 85 292 2.0 9.0 0.00 1.88 0.04 77 1019.4
20210623202044 87 44 3.0 9.0 0.00 1.88 0.04 75 1019.2
20210623201547 88 311 3.0 8.0 0.00 1.88 0.04 75 1019.1
20210623201053 90 302 3.0 8.0 0.00 1.88 0.04 73 1019.1
20210623200557 90 63 0.0 2.0 0.00 1.88 0.04 70 1019.0
20210623200111 90 63 1.0 3.0 0.00 1.88 0.04 68 1019.0
20210623195600 90 64 1.0 3.0 0.00 1.88 0.04 69 1019.0
20210623195045 90 72 1.0 4.0 0.00 1.88 0.04 69 1019.0
20210623194549 91 97 1.0 4.0 0.00 1.88 0.04 68 1019.0
20210623194055 91 85 1.0 2.0 0.00 1.88 0.04 67 1019.1
20210623193541 91 55 0.0 5.0 0.00 1.88 0.04 67 1019.1
20210623193046 91 78 1.0 2.0 0.00 1.88 0.04 66 1019.1
20210623192550 91 53 0.0 3.0 0.00 1.88 0.04 66 1018.9
20210623192055 91 160 1.0 3.0 0.00 1.88 0.04 65 1018.9
20210623191542 91 64 0.0 3.0 0.00 1.88 0.04 65 1019.0
20210623191047 91 157 0.0 3.0 0.00 1.88 0.04 65 1018.9
20210623190553 91 71 0.0 3.0 0.00 1.88 0.04 66 1018.9
20210623190109 91 59 1.0 3.0 0.00 1.88 0.04 64 1018.9
20210623185559 92 59 1.0 4.0 0.00 1.88 0.04 65 1018.8
20210623185045 93 57 1.0 4.0 0.00 1.88 0.04 64 1018.6
20210623184547 93 144 0.0 3.0 0.00 1.88 0.04 65 1018.5
20210623184052 93 84 1.0 5.0 0.00 1.88 0.04 64 1018.5
20210623183557 93 66 2.0 5.0 0.00 1.88 0.04 63 1018.7
20210623183040 94 64 1.0 4.0 0.00 1.88 0.04 61 1018.7
20210623182545 94 59 1.0 3.0 0.00 1.88 0.04 62 1018.7
20210623182051 94 62 1.0 3.0 0.00 1.88 0.04 61 1018.8
20210623181558 94 272 2.0 3.0 0.00 1.88 0.04 62 1018.8
20210623181041 94 325 1.0 4.0 0.00 1.88 0.04 63 1018.9
20210623180547 94 5 1.0 6.0 0.00 1.88 0.04 63 1019.0
20210623180105 94 49 1.0 6.0 0.00 1.88 0.04 61 1019.0
20210623175554 94 131 1.0 3.0 0.00 1.88 0.04 62 1019.0
20210623175100 93 71 2.0 4.0 0.00 1.88 0.04 63 1019.1
20210623174543 93 66 1.0 5.0 0.00 1.88 0.04 64 1019.4
20210623174049 93 65 1.0 4.0 0.00 1.88 0.04 64 1019.5
20210623173553 93 149 1.0 3.0 0.00 1.88 0.04 65 1019.4
20210623173057 93 74 1.0 3.0 0.00 1.88 0.04 66 1019.6
20210623172541 92 83 0.0 3.0 0.00 1.88 0.04 67 1019.7
20210623172045 92 74 0.0 3.0 0.00 1.88 0.04 68 1019.7
20210623171542 91 286 0.0 5.0 0.00 1.88 0.04 70 1019.7
20210623171048 91 130 1.0 5.0 0.00 1.88 0.04 69 1019.8
20210623170555 92 240 1.0 5.0 0.00 1.88 0.04 69 1019.8
20210623170108 92 177 1.0 5.0 0.00 1.88 0.04 69 1019.8
20210623165558 92 274 1.0 3.0 0.00 1.88 0.04 68 1019.8
20210623165044 92 360 1.0 4.0 0.00 1.88 0.04 70 1020.0
20210623164549 92 62 1.0 4.0 0.00 1.88 0.04 69 1020.1
20210623164054 92 84 0.0 4.0 0.00 1.88 0.04 70 1020.1
20210623163558 92 111 0.0 4.0 0.00 1.88 0.04 71 1020.2
20210623163041 91 284 1.0 2.0 0.00 1.88 0.04 70 1020.3
20210623162546 91 190 1.0 2.0 0.00 1.88 0.04 71 1020.3
20210623162051 90 142 0.0 2.0 0.00 1.88 0.04 72 1020.4
20210623161557 90 209 0.0 3.0 0.00 1.88 0.04 72 1020.6
20210623161043 90 109 0.0 3.0 0.00 1.88 0.04 72 1020.6
20210623160549 90 66 0.0 2.0 0.00 1.88 0.04 71 1020.7
20210623160106 90 143 0.0 3.0 0.00 1.88 0.04 72 1020.7
20210623155556 90 40 1.0 6.0 0.00 1.88 0.04 71 1020.8
20210623155041 90 105 1.0 6.0 0.00 1.88 0.04 71 1020.8
20210623154547 91 54 0.0 3.0 0.00 1.88 0.04 73 1020.8
20210623154052 90 80 1.0 2.0 0.00 1.88 0.04 72 1020.8
20210623153541 90 96 0.0 2.0 0.00 1.88 0.04 75 1020.8
20210623153046 89 243 0.0 2.0 0.00 1.88 0.04 76 1020.8